Regional Weather Roundup
Issued by NWS Jackson, KY

Home | Current Version | Previous Version | Graphics & Text | Print | Product List | Glossary On
Versions: 1 2 3 4 5 6 7 8 9 10 11 12 13 14 15 16 17 18 19 20 21 22 23 24 25 26 27 28 29 30 31 32 33 34 35 36 37 38 39 40 41 42 43 44 45 46 47 48 49 50
245
ASUS43 KJKL 191410
RWRJKL

EAST KENTUCKY HOURLY WEATHER ROUNDUP
NATIONAL WEATHER SERVICE JACKSON KY
1000 AM EDT SAT AUG 19 2017

NOTE: "FAIR" INDICATES FEW OR NO CLOUDS BELOW 12,000 FEET WITH
NO SIGNIFICANT WEATHER AND/OR OBSTRUCTIONS TO VISIBILITY.

* THESE REPORTS ARE NOT UNDER NWS QUALITY CONTROL AND MAY NOT
  REPORT WEATHER SUCH AS PRECIPITATION AND FOG.

KYZ079-080-083-085-087-088-110-112-115-119-120-191500
...EASTERN KENTUCKY...

CITY           SKY/WX    TMP DP  RH WIND       PRES   REMARKS
JACKSON        CLOUDY    71  66  84 VRB3      30.04S
LONDON         MOSUNNY   70  65  84 S5        30.04F
SOMERSET*      SUNNY     70  68  94 CALM      30.04S
MONTICELLO*    CLOUDY    76  68  76 NW8       30.05S
WILLIAMSBURG*  MOSUNNY   68  68 100 S5        30.04F
MIDDLESBORO*   CLOUDY    65  65 100 CALM      30.07S
HARLAN APT*    CLOUDY    64  63  94 CALM      30.08S
PIKE CO APT*   CLOUDY    66  66 100 S3        30.06R FOG
BIG SANDY APT* MOSUNNY   71  68  90 SW5       30.04S
MOREHEAD APT*  MOSUNNY   73  66  78 S8        30.02S
$$

KYZ035-036-041-042-044-050-067-078-099-191500
...CENTRAL KENTUCKY...

CITY           SKY/WX    TMP DP  RH WIND       PRES   REMARKS
MT STERLING*   SUNNY     73  66  78 W6        30.03S
FLEMING/MASON* SUNNY     75  67  75 SW9       30.00F
DANVILLE*      SUNNY     73  68  83 SW3       30.03S
LEXINGTON      SUNNY     76  66  71 S6        30.00F
FRANKFORT      SUNNY     77  66  68 S7        29.98F
LOUISVILLE     PTSUNNY   76  67  73 S8        29.96S
LEBANON*         N/A     75  66  73 S6        30.01R
GLASGOW*       SUNNY     76  67  73 SW3       30.01S
BOWLING GREEN  CLOUDY    78  70  76 W6        30.01S
$$

KYZ091>093-OHZ055-061-077-WVZ005-015-034-035-042-191500
...SOUTHERN OHIO/WEST VIRGINIA...

CITY           SKY/WX    TMP DP  RH WIND       PRES   REMARKS
COVINGTON      CLOUDY    73  70  90 S7        29.96S
COLUMBUS       MOSUNNY   73  67  81 SW8       29.94R
DAYTON         MOSUNNY   75  64  68 SW9       29.96R
WILMINGTON     SUNNY     75  68  78 SW9       29.95F
HUNTINGTON     MOSUNNY   72  66  81 SW7       29.99S
CHARLESTON     PTSUNNY   74  66  76 CALM      30.01S
PINEVILLE*     CLOUDY    70  66  87 MISG      30.12R
BECKLEY        SUNNY     69  64  84 SW3       30.09S
BLUEFIELD      MOSUNNY   67  63  87 W7        30.12R
LOGAN CO APT*    N/A     70  66  88 CALM      30.05S
$$

VAZ002-007-008-TNZ017-027-036-066-071-191500
...SOUTHWEST VIRGINIA/EAST TENNESSEE...

CITY           SKY/WX    TMP DP  RH WIND       PRES   REMARKS
WISE*          SUNNY     72  66  83 CALM      30.12S
JONESVILLE*      N/A     66  66 100 CALM      30.09S
ABINGDON*      SUNNY     71  71 100 W3        30.10S
BRISTOL        MOSUNNY   71  68  90 CALM      30.07S
MORRISTOWN*    SUNNY     75  68  78 CALM      30.05S
SEVIERVILLE*   SUNNY     75  64  69 CALM      30.04F
KNOXVILLE      MOSUNNY   75  68  78 CALM      30.04S
LAFOLLETTE*    SUNNY     73  66  78 CALM      30.08F
OAK RIDGE      SUNNY     74  67  78 CALM      30.06R
CROSSVILLE     SUNNY     74  66  76 CALM      30.09R
NASHVILLE      CLOUDY    76  68  76 SE3       30.01F
$$

...KEY TO REMARKS...
VSB - VISIBILITY IN MILES
WCI - WIND CHILL INDEX
HX  - HEAT INDEX

$$




USA.gov is the U.S. government's official web portal to all federal, state and local government web resources and services.